{"data":{"norad_id":68152,"epoch":"2026-05-25T01:10:13.980288Z","epoch_age_seconds":80901,"freshness":"FRESH","line1":"1 68152U 26049L   26145.04877292  .00011023  00000+0  34324-3 0  9995","line2":"2 68152  97.2847 166.7708 0000775  79.1801 280.9529 15.33448262 11354","mean_motion":15.33448262,"eccentricity":7.75e-5,"inclination_deg":97.2847,"raan_deg":166.7708,"arg_perigee_deg":79.1801,"mean_anomaly_deg":280.9529,"bstar":0.00034324,"rev_number":1135,"period_min":93.906004896564,"perigee_km":465.00308461699,"apogee_km":466.0638535397,"semimajor_km":6843.6704690783,"source":"CELESTRAK","updated_at":"2026-05-25T13:38:21.848545Z"}}